sat.trackr.live / text

‹ back to catalog

GALAXY 36 (G-36)

NORAD 54742 · 2022-170B

PAYLOAD ACTIVE UNKNOWN

§ Identity

Operator
Country
ITSO
Launch date
2022-12-13
Launch site
FRGUI
Launch vehicle
Mass (kg)
RCS (m²)

Purposes: comms

External: N2YO · Heavens-Above · Gunter

§ Orbital elements

Epoch: 2026-09-19T19:58:11.565984Z

Period
1,436.09 min
Inclination
0.0195°
Eccentricity
0.0002105
Mean motion
1.00272043 rev/d
Perigee alt
35,777.6 km
Apogee alt
35,795.4 km
Semi-major
42,164.7 km
B*
0.0000e+0
RAAN
146.0404°
Arg perigee
340.2795°
Mean anomaly
82.9794°
Rev number
1,373

§ Raw data

GALAXY 36 (G-36)1 54742U 22170B   26262.83207831 -.00000190  00000+0  00000+0 0  99932 54742   0.0195 146.0404 0002105 340.2795  82.9794  1.00272043 13738

JSON: /api/v1/satellites/54742 · /tle

For live sub-satellite position, see the globe view (requires WebGL).

§ Visibility from observer

Set your observer location to see the next 7 days of passes ≥ 10°. The values pass through the URL so the page stays shareable.

No JS? Fill the form by hand. The geolocation button needs JavaScript.